Location: ????????
(56.1167°N, 38.6333°E)
Time: 07:38:58
(UTC+00:00)

Cosmos 1092 Rocket - Pass Details

Date: 18 November 2025
Orbit: 953 x 995 km, 82.9° (Epoch: 14 December)

Event Time Altitude Azimuth Distance (km) Brightness Sun altitude
Rises 16:21:16 0° 347° (NNW) 3,702 7.2 -25.8°
Reaches altitude 10° 16:23:48 10° 346° (NNW) 2,744 6.5 -26.1°
Maximum altitude 16:30:04 77° 263° (W) 1,002 4.0 -27.0°
Drops below altitude 10° 16:36:15 10° 178° (S) 2,697 6.2 -27.9°
Sets 16:38:43 0° 177° (S) 3,635 6.9 -28.2°
